WGS F4 (USA 233)

Last updated on Jan. 22, 2021, 6:26 a.m. UTC

1 38070U 12003A   21021.79514809 -.00000204  00000-0  00000-0 0  9990
2 38070   0.0170  83.4265 0000338 206.6068 205.9452  1.00272550 24373
UTC
Height (km)
Latitude
Longitude
Inclination
Orbital Period
UTC large
Height (km)
Speed (km/s)
/
Latitude / Longitude
Inclination (degrees)
Orbital Period (minutes)
Azimuth
Elevation
Range (km)
Doppler Factor
iOS Compass Heading
iOS Angle

Next 30 passes for location: Hong Kong

Rise time Rise Azimuth (degrees) Set time Set Azimuth (degrees) Duration Max altitude (degrees)

No matching passes for this satellites